| time (UTC) | temp F | wind direction | speed MPH | gust MPH | rain 1hr in | rain 24hr in | rain mn in | humidity % | barometer mb |
| 20260504081523 | 47 | 276 | 0.0 | 2.0 | 0.00 | 0.00 | 0.00 | 67 | 1014.8 |
| 20260504050107 | 49 | 200 | 0.0 | 2.0 | 0.00 | 0.00 | 0.00 | 58 | 1014.4 |
| 20260504044602 | 50 | 239 | 0.0 | 3.0 | 0.00 | 0.00 | 0.00 | 56 | 1014.3 |
| 20260504043057 | 50 | 231 | 0.0 | 1.0 | 0.00 | 0.00 | 0.00 | 56 | 1014.2 |
| 20260504041558 | 50 | 268 | 0.0 | 1.0 | 0.00 | 0.00 | 0.00 | 54 | 1014.1 |
| 20260504040053 | 50 | 252 | 0.0 | 0.0 | 0.00 | 0.00 | 0.00 | 53 | 1014.0 |
| 20260504034551 | 50 | 252 | 0.0 | 1.0 | 0.00 | 0.00 | 0.00 | 52 | 1013.8 |
| 20260504033051 | 51 | 252 | 0.0 | 0.0 | 0.00 | 0.00 | 0.00 | 51 | 1013.8 |
| 20260504031550 | 51 | 252 | 0.0 | 1.0 | 0.00 | 0.00 | 0.00 | 50 | 1013.6 |
| 20260504030049 | 52 | 105 | 0.0 | 1.0 | 0.00 | 0.00 | 0.00 | 49 | 1013.7 |
| 20260504024603 | 52 | 298 | 0.0 | 1.0 | 0.00 | 0.00 | 0.00 | 49 | 1013.7 |
| 20260504023049 | 53 | 243 | 0.0 | 1.0 | 0.00 | 0.00 | 0.00 | 47 | 1013.7 |
| 20260504021547 | 53 | 243 | 0.0 | 1.0 | 0.00 | 0.00 | 0.00 | 44 | 1013.7 |
| 20260504020048 | 54 | 246 | 0.0 | 1.0 | 0.00 | 0.00 | 0.00 | 43 | 1013.6 |
| 20260504014547 | 54 | 260 | 0.0 | 1.0 | 0.00 | 0.00 | 0.00 | 42 | 1013.6 |
| 20260504013048 | 54 | 237 | 0.0 | 1.0 | 0.00 | 0.00 | 0.00 | 41 | 1013.5 |
| 20260504011548 | 55 | 257 | 0.0 | 2.0 | 0.00 | 0.00 | 0.00 | 40 | 1013.3 |
| 20260504010045 | 56 | 236 | 0.0 | 1.0 | 0.00 | 0.00 | 0.00 | 39 | 1013.1 |
| 20260504004547 | 56 | 243 | 0.0 | 2.0 | 0.00 | 0.00 | 0.00 | 39 | 1012.9 |
| 20260504003145 | 56 | 269 | 0.0 | 1.0 | 0.00 | 0.00 | 0.00 | 38 | 1012.8 |
| 20260504001545 | 57 | 230 | 0.0 | 2.0 | 0.00 | 0.00 | 0.00 | 37 | 1012.6 |
| 20260504000112 | 57 | 225 | 1.0 | 4.0 | 0.00 | 0.00 | 0.00 | 36 | 1012.6 |
| 20260503234551 | 58 | 264 | 1.0 | 5.0 | 0.00 | 0.00 | 0.00 | 35 | 1012.4 |
| 20260503233042 | 59 | 211 | 1.0 | 6.0 | 0.00 | 0.00 | 0.00 | 34 | 1012.3 |
| 20260503231541 | 59 | 290 | 1.0 | 6.0 | 0.00 | 0.00 | 0.00 | 32 | 1012.2 |
| 20260503230041 | 60 | 250 | 0.0 | 7.0 | 0.00 | 0.00 | 0.00 | 32 | 1012.1 |
| 20260503224540 | 60 | 238 | 3.0 | 7.0 | 0.00 | 0.00 | 0.00 | 31 | 1012.0 |
| 20260503223040 | 60 | 245 | 1.0 | 9.0 | 0.00 | 0.00 | 0.00 | 31 | 1012.0 |
| 20260503221640 | 61 | 247 | 2.0 | 6.0 | 0.00 | 0.00 | 0.00 | 30 | 1011.9 |
| 20260503220039 | 61 | 141 | 1.0 | 8.0 | 0.00 | 0.00 | 0.00 | 31 | 1011.9 |
| 20260503214541 | 62 | 300 | 2.0 | 6.0 | 0.00 | 0.00 | 0.00 | 31 | 1012.1 |
| 20260503213035 | 62 | 256 | 0.0 | 6.0 | 0.00 | 0.00 | 0.00 | 31 | 1012.0 |
| 20260503211533 | 62 | 294 | 1.0 | 7.0 | 0.00 | 0.00 | 0.00 | 33 | 1012.0 |
| 20260503210031 | 61 | 63 | 2.0 | 7.0 | 0.00 | 0.00 | 0.00 | 33 | 1012.0 |
| 20260503204531 | 61 | 215 | 3.0 | 11.0 | 0.00 | 0.00 | 0.00 | 31 | 1012.0 |
| 20260503203040 | 61 | 256 | 1.0 | 6.0 | 0.00 | 0.00 | 0.00 | 37 | 1012.1 |
| 20260503201533 | 59 | 247 | 2.0 | 7.0 | 0.00 | 0.00 | 0.00 | 34 | 1012.2 |
| 20260503200025 | 59 | 265 | 2.0 | 9.0 | 0.00 | 0.00 | 0.00 | 33 | 1012.3 |
| 20260503194525 | 60 | 360 | 2.0 | 6.0 | 0.00 | 0.00 | 0.00 | 33 | 1012.3 |
| 20260503193024 | 60 | 245 | 2.0 | 7.0 | 0.00 | 0.00 | 0.00 | 34 | 1012.5 |
| 20260503191521 | 60 | 229 | 2.0 | 8.0 | 0.00 | 0.00 | 0.00 | 32 | 1012.6 |
| 20260503190028 | 59 | 284 | 1.0 | 7.0 | 0.00 | 0.00 | 0.00 | 34 | 1012.7 |
| 20260503184521 | 60 | 286 | 3.0 | 7.0 | 0.00 | 0.00 | 0.00 | 32 | 1012.9 |
| 20260503183020 | 59 | 275 | 2.0 | 10.0 | 0.00 | 0.00 | 0.00 | 34 | 1013.1 |
| 20260503181516 | 59 | 251 | 2.0 | 8.0 | 0.00 | 0.00 | 0.00 | 38 | 1013.0 |
| 20260503180022 | 58 | 210 | 4.0 | 10.0 | 0.00 | 0.00 | 0.00 | 35 | 1013.2 |
| 20260503174514 | 56 | 306 | 1.0 | 8.0 | 0.00 | 0.00 | 0.00 | 41 | 1013.2 |
| 20260503173017 | 58 | 323 | 1.0 | 9.0 | 0.00 | 0.00 | 0.00 | 38 | 1013.3 |
| 20260503171506 | 57 | 355 | 1.0 | 13.0 | 0.00 | 0.00 | 0.00 | 41 | 1013.3 |